Regional Weather Roundup
Issued by NWS

Home | Current Version | Previous Version | Text Only | Print | Product List | Glossary On
Versions: 1 2 3 4 5 6 7 8 9 10 11 12 13 14 15 16 17 18 19 20 21 22 23 24 25 26 27 28
000
ASUS42 KTBW 200815
RWRFL
FLORIDA REGIONAL WEATHER ROUNDUP
NATIONAL WEATHER SERVICE TAMPA BAY RUSKIN FL
300 AM EST FRI JAN 20 2017

NOTE: "FAIR" INDICATES FEW OR NO CLOUDS BELOW 12,000 FEET WITH NO
SIGNIFICANT WEATHER AND/OR OBSTRUCTIONS TO VISIBILITY.

FLZ001>010-012>015-112-114-115-200900-
PANHANDLE FLORIDA

CITY           SKY/WX    TMP DP  RH WIND       PRES   REMARKS
PENSACOLA      MOCLDY    65  63  93 S5        29.85R
PENSACOLA NAS  MOCLDY    66  64  93 SW7       29.85R
MILTON NAS     LGT RAIN  63  63 100 W5        29.86
CRESTVIEW      CLOUDY    65  64  97 S5        29.86R
DUKE FIELD     CLOUDY    66  65  97 S7        29.85R
VALPARAISO     MOCLDY    67  66  97 S9        29.86R
TRI COUNTY     FAIR      65  65 100 S7        29.85R
PANAMA CITY    FAIR      65  63  93 S6        29.85R
TYNDALL AFB    CLOUDY    64  63  96 S12       29.86S
APALACHICOLA   LGT RAIN  64  64 100 SE7       29.89F

STATION/POSITION SKY/WX   TEMP    WIND        PRES    WAVE   SWELL
                          AIR SEA DIR/SP/G            HT/PER HT/PER
                          (F)     (DEG/KT/KT) (MB)    (FT/S) (FT/S)
30.1N   87.6W              66 66  200/  8/  8 1010.5    4/ 6   3/ 6
28.8N   86.0W              67 75              1013.3    5/ 6
PANAMA CITY BEAC           65 67  160/ 13/ 14 1011.5R
TOWER C                    68      20/ 16/ 19 1012.4F
28.5N   84.5W              74 73  210/ 14/ 16 1013.2    3/ 4

$$
FLZ011-016>038-118-127-128-134-139-239-200900-
NORTH FLORIDA

CITY           SKY/WX    TMP DP  RH WIND       PRES   REMARKS
MARIANNA       CLOUDY    67  66  97 S7        29.83F
TALLAHASSEE    RAIN      65  65 100 N6        29.93S
PERRY          CLOUDY    64  63  95 CALM      29.95S
CROSS CITY     CLOUDY    61  59  94 S3        29.94F
LAKE CITY      FAIR      61  61 100 CALM      29.95F
GAINESVILLE    PTCLDY    62  56  80 CALM      29.96F
WILLISTON      CLEAR     59  59 100 CALM      29.96F FOG
PALATKA        FAIR      57  57 100 CALM      29.97F FOG
MAYPORT NAS    MOCLDY    62  61  96 SW7       29.95F
JACKSONVILLE   CLOUDY    61  61 100 CALM      29.95S
JAX NAS        MOCLDY    64  62  93 S3        29.97S
FERNANDINA BEA FAIR      66  64  94 S5        29.94F
ST AUGUSTINE   MOCLDY    64  62  93 SW6       29.97F

STATION/POSITION SKY/WX   TEMP    WIND        PRES    WAVE   SWELL
                          AIR SEA DIR/SP/G            HT/PER HT/PER
                          (F)     (DEG/KT/KT) (MB)    (FT/S) (FT/S)
SHELL POINT      NOT AVBL
KEATON BEACH               67     170/ 10/ 12 1013.5S
CEDAR KEY                  67     210/  8/  9 1014.6F
FERNANDINA                 64 63  160/  4/  5 1014.6F
30.7N   81.3W                 64                N/A     1/11
MAYPORT                    64 63  210/  5/  6 1014.5F
31.4N   80.9W              61 60  180/  4/  4 1013.6F   2/10   2/10
ST AUGUSTINE               63 62  230/  6/  8 1015.4F

$$
FLZ040-043>046-052-053-057-058-063-144-200900-
INTERIOR CENTRAL FLORIDA

CITY           SKY/WX    TMP DP  RH WIND       PRES   REMARKS
OCALA          MOCLDY    57  54  88 CALM      29.97S
THE VILLAGES     N/A     59  59 100 CALM      29.88S
LEESBURG       MOCLDY    63  60  90 S3        29.98F
SANFORD        PTCLDY    62  60  93 CALM      29.98S
ORLANDO EXEC   PTCLDY    63  59  87 CALM      29.97F
ORLANDO INTL   CLOUDY    60  58  92 CALM      29.98F
KISSIMMEE      PTCLDY    61  60  97 CALM      29.99F
WINTER HAVEN   CLOUDY    63  59  87 S5        29.99F
LAKELAND       PTCLDY    59  57  94 CALM      29.98F
BARTOW         FAIR      57  57 100 CALM      29.98F
OKEECHOBEE     CLOUDY    57  55  94 CALM      30.00S

$$
FLZ041-047-054-059-064-141-147-200900-
EAST CENTRAL FLORIDA

CITY           SKY/WX    TMP DP  RH WIND       PRES   REMARKS
DAYTONA BEACH  FOG       61  61 100 CALM      29.98S VSB 1/4
DELAND         PTCLDY    61  59  94 CALM      29.97F
JFK SPACE CTR  MOCLDY    66  63  92 SW5       29.97S
CAPE CANAVERAL MOCLDY    66  62  87 W5        29.97S
PATRICK AFB    CLOUDY    66  62  87 W8        29.98S
MELBOURNE      PTCLDY    62  60  93 CALM      29.99R
VERO BEACH     PTCLDY    62  59  90 SW3       30.00R
FT PIERCE      PTCLDY    59  58  96 CALM      29.99S
STUART         CLOUDY    64  61  88 CALM      30.01R

STATION/POSITION SKY/WX   TEMP    WIND        PRES    WAVE   SWELL
                          AIR SEA DIR/SP/G            HT/PER HT/PER
                          (F)     (DEG/KT/KT) (MB)    (FT/S) (FT/S)
TRIDENT PIER     NOT AVBL
28.4N   80.5W                 70                N/A     2/ 3
27.5N   80.2W                 76                N/A     2/ 3

$$
FLZ050-056-061-142-242-148-248-149-249-151-251-155-255-
160-260-200900-
WEST CENTRAL FLORIDA

CITY           SKY/WX    TMP DP  RH WIND       PRES   REMARKS
CRYSTAL RIVER  FAIR      57  57 100 CALM      29.97S
INVERNESS      MOCLDY    54  54 100 CALM      29.98S
BROOKSVILLE    CLOUDY    57  57 100 CALM      29.98S
CLEARWATER AIR FAIR      66  63  88 SW5       29.96S
ST PETE CLEARW CLOUDY    68  62  81 SW8       29.97S
TAMPA INTL     PTCLDY    68  64  87 CALM      29.97S
TAMPA EXEC     PTCLDY    59  55  88 CALM      29.98S FOG
PLANT CITY     PTCLDY    63  61  94 CALM      29.99S
MACDILL AFB    CLOUDY    66  66 100 NW6       29.97S
PETER O KNIGHT MOCLDY    68  66  94 SW5       29.98R
ST PETERSBURG  MOCLDY    68  64  87 SW6       29.96S
SARASOTA       CLOUDY    67  64  90 S7        29.95F
VENICE         FAIR      66  66 100 S7        29.97F

STATION/POSITION SKY/WX   TEMP    WIND        PRES    WAVE   SWELL
                          AIR SEA DIR/SP/G            HT/PER HT/PER
                          (F)     (DEG/KT/KT) (MB)    (FT/S) (FT/S)
27.3N   84.2W                 78                N/A     3/ 5
CLEARWATER BEACH                  190/ 11/ 12 1014.8S
MIDDLE TAMPA BAY           68     210/  8/ 10 1015.0F
VENICE                     69 69  180/  4/  5 1015.1R

$$
FLZ066-069-070-075>078-162-262-165-265-200900-
SOUTHWEST FLORIDA AND KEYS

CITY           SKY/WX    TMP DP  RH WIND       PRES   REMARKS
PUNTA GORDA    FOG       54  53  97 S3        30.00S VSB 1
FT MYERS       CLOUDY    60  59  96 CALM      29.98S
SOUTHWEST INTL CLOUDY    59  56  89 CALM      29.99R
NAPLES         CLOUDY    61  60  97 CALM      29.98S
MARCO ISLAND   CLOUDY    61  57  88 NE3       29.98S
MARATHON       PTCLDY    76  65  68 S7        29.96R
KEY WEST NAS   PTCLDY    73  64  73 S10       29.96S
KEY WEST INTL  PTCLDY    76  66  71 S7        29.96S

STATION/POSITION SKY/WX   TEMP    WIND        PRES    WAVE   SWELL
                          AIR SEA DIR/SP/G            HT/PER HT/PER
                          (F)     (DEG/KT/KT) (MB)    (FT/S) (FT/S)
NAPLES                        71              1015.1S
26.0N   85.6W              75 75  170/ 10/ 10 1014.0S   2/ 4   2/ 4
DRY TORTUGAS               76     200/  8/  8 1014.6R
SAND KEY                   76     190/ 12/ 15 1014.8R
LONG KEY                   74 74  190/ 10/ 12 1014.7F

$$
FLZ067-068-071>074-168-172>174-200900-
SOUTHEAST FLORIDA

CITY           SKY/WX    TMP DP  RH WIND       PRES   REMARKS
W PALM BEACH   MOCLDY    64  60  87 NW5       29.99S
FT LAUDER-EXEC PTCLDY    65  61  87 CALM      29.98S
FT LAUDERDALE  PTCLDY    65  63  93 NW5       29.97S
POMPANO BEACH  MOCLDY    65  61  87 NW3       29.98S
PEMBROKE PINES MOCLDY    62  60  93 CALM      29.99S
OPA LOCKA      PTCLDY    64  62  93 CALM      29.98S
MIAMI          MOCLDY    66  60  81 NW3       29.98S
WEST KENDALL   PTCLDY    61  59  93 CALM      29.97S
HOMESTEAD      PTCLDY    60  60 100 CALM      29.97R

STATION/POSITION SKY/WX   TEMP    WIND        PRES    WAVE   SWELL
                          AIR SEA DIR/SP/G            HT/PER HT/PER
                          (F)     (DEG/KT/KT) (MB)    (FT/S) (FT/S)
PORT EVERGLADES            70     300/  4/  5 1014.8F
VIRGINIA KEY               73 80  200/  5/  6 1015.2R
LAKE WORTH                 68 77  300/  5/  7 1015.0S
FOWEY ROCKS                74 75  160/ 14/ 15 1015.1F

$$





USA.gov is the U.S. government's official web portal to all federal, state and local government web resources and services.